Tracking 17884 objects as of 2-December-2016
HD Live streaming from Space Station
objects crossing your sky now

INTELSAT 2-F4

Track INTELSAT 2-F4 now!
INTELSAT 2-F4 is classified as:


NORAD ID: 2969
Int'l Code: 1967-094A
Perigee: 35,740.4 km
Apogee: 35,879.3 km
Inclination: 4.2 °
Period: 1,436.9 minutes
Semi major axis: 42180 km
RCS: 2.5118 m2 (large)
Launch date: September 28, 1967
Source: International Telecommunications Satellite Organization (ITSO)
Launch site: AIR FORCE EASTERN TEST RANGE (AFETR)
Your satellite tracking list
Your tracking list is empty





NASA's NSSDC Master Catalog

Two Line Element Set (TLE):
1  2969U 67094A   16336.07477722 -.00000275 +00000-0 +00000-0 0  9992
2  2969 004.2054 299.0912 0016468 238.7027 230.2290 01.00214394080379
Source of the keplerian elements: AFSPC